Change the Weather History Date:

Friday, July 19, 2013

  Actual Average (KSAF) Record (KSAF)
Temperature  
Mean Temperature 68 °F -  
Max Temperature 81 °F 98 °F 100 °F (2010)
Min Temperature 57 °F 57 °F 53 °F (2000)
Cooling Degree Days 4    
Growing Degree Days 18 (Base 50)    
Moisture  
Dew Point 54 °F    
Average Humidity 66    
Maximum Humidity 94    
Minimum Humidity 35    
Precipitation  
Precipitation 0.00 in - - ()
Sea Level Pressure  
Sea Level Pressure 30.02 in    
Wind  
Wind Speed 10 mph (South)    
Max Wind Speed 16 mph    
Max Gust Speed 20 mph    
Visibility 10 miles    
Events      
Averages and records for this station are not official NWS values.
T = Trace of Precipitation, MM = Missing Value Source: NWS Daily Summary

Daily Weather History Graph

Daily Weather History Graph

Search for Another Location

Airport or City:

Trip Planner

Search our weather history database for the weather conditions in past years. The results will help you decide how hot, cold, wet, or windy it might be!

Date:

Astronomy

Jul. 19, 2013 Rise Set
Actual Time 6:02 AM MDT 8:14 PM MDT
Civil Twilight 5:34 AM MDT 8:43 PM MDT
Nautical Twilight 4:59 AM MDT 9:18 PM MDT
Astronomical Twilight 4:20 AM MDT 9:56 PM MDT
Moon 5:20 PM MDT (7/19) 2:45 AM MDT (7/19)
Length of Visible Light 15h 09m
Length of Day
14h 11m
Waxing Gibbous, 87% of the Moon is Illuminated
Jul 19
Waxing Gibbous
Jul 22
Full
Jul 29
Last Quarter
Aug 6
New
Aug 14
First Quarter

Hourly Weather History & Observations

Time (MDT) Temp. Heat Index Dew Point Humidity Pressure Visibility Wind Dir Wind Speed Gust Speed Precip Events Conditions
12:16 AM 59.0 °F - 57.2 °F 94% 30.33 in 10.0 mi South 12.7 mph - N/A   Scattered Clouds
12:25 AM 59.0 °F - 57.2 °F 94% 30.33 in 6.0 mi South 11.5 mph - N/A   Mostly Cloudy
12:49 AM 57.2 °F - 55.4 °F 94% 30.33 in 10.0 mi South 9.2 mph - N/A   Scattered Clouds
12:53 AM 57.9 °F - 55.9 °F 93% 30.07 in 10.0 mi South 9.2 mph - N/A   Partly Cloudy
1:53 AM 57.9 °F - 55.0 °F 90% 30.03 in 10.0 mi SW 8.1 mph - N/A   Clear
2:53 AM 57.9 °F - 54.0 °F 87% 30.02 in 10.0 mi WSW 9.2 mph - N/A   Mostly Cloudy
3:53 AM 59.0 °F - 55.0 °F 87% 30.01 in 10.0 mi SW 16.1 mph - N/A   Overcast
4:53 AM 57.9 °F - 55.0 °F 90% 30.02 in 10.0 mi West 10.4 mph - N/A   Mostly Cloudy
5:53 AM 57.0 °F - 55.0 °F 93% 30.03 in 10.0 mi West 10.4 mph - N/A   Partly Cloudy
6:53 AM 59.0 °F - 55.9 °F 90% 30.03 in 10.0 mi West 5.8 mph - N/A   Clear
7:53 AM 64.0 °F - 55.0 °F 73% 30.04 in 10.0 mi WNW 3.5 mph - N/A   Mostly Cloudy
8:53 AM 66.9 °F - 55.0 °F 66% 30.04 in 10.0 mi NW 3.5 mph - N/A   Clear
9:53 AM 71.1 °F - 54.0 °F 55% 30.02 in 10.0 mi NE 5.8 mph - N/A   Partly Cloudy
10:53 AM 73.0 °F - 52.0 °F 48% 30.01 in 10.0 mi ENE 12.7 mph - N/A   Clear
11:53 AM 73.9 °F - 53.1 °F 48% 30.01 in 10.0 mi ENE 12.7 mph 19.6 mph N/A   Clear
12:53 PM 77.0 °F - 53.1 °F 43% 29.99 in 10.0 mi Variable 4.6 mph - N/A   Partly Cloudy
1:53 PM 79.0 °F - 52.0 °F 39% 29.95 in 10.0 mi SE 6.9 mph 16.1 mph N/A   Scattered Clouds
2:53 PM 80.1 °F 79.9 °F 53.1 °F 39% 29.94 in 10.0 mi SSE 8.1 mph - N/A   Scattered Clouds
3:53 PM 79.0 °F - 51.1 °F 38% 29.91 in 10.0 mi SE 11.5 mph 19.6 mph N/A   Partly Cloudy
4:53 PM 79.0 °F - 48.9 °F 35% 29.89 in 10.0 mi SSE 9.2 mph 18.4 mph N/A   Partly Cloudy
5:53 PM 78.1 °F - 50.0 °F 37% 29.90 in 10.0 mi SSE 10.4 mph - N/A   Clear
6:53 PM 75.0 °F - 50.0 °F 41% 29.92 in 10.0 mi SSE 8.1 mph - N/A   Clear
7:53 PM 73.0 °F - 51.1 °F 46% 29.91 in 10.0 mi SSE 8.1 mph - N/A   Clear
8:53 PM 69.1 °F - 52.0 °F 54% 29.94 in 10.0 mi SSE 10.4 mph - N/A   Clear
9:53 PM 66.9 °F - 54.0 °F 63% 29.96 in 10.0 mi SSE 10.4 mph - N/A   Clear
10:53 PM 64.9 °F - 55.0 °F 70% 29.97 in 10.0 mi ESE 6.9 mph - N/A   Clear
11:53 PM 63.0 °F - 55.0 °F 75% 29.98 in 10.0 mi East 6.9 mph - N/A   Clear